sat.trackr.live / text

‹ back to catalog

SARAL

NORAD 39086 · 2013-009A

PAYLOAD ACTIVE UNKNOWN

§ Identity

Operator
Country
IND
Launch date
2013-02-25
Launch site
SRILR
Launch vehicle
Mass (kg)
RCS (m²)
1.68

Purposes: earth_obs

External: N2YO · Heavens-Above · Gunter

§ Orbital elements

Epoch: 2026-09-14T21:51:23.209920Z

Period
100.49 min
Inclination
98.5566°
Eccentricity
0.0002588
Mean motion
14.32907285 rev/d
Perigee alt
780.2 km
Apogee alt
783.9 km
Semi-major
7,160.2 km
B*
3.1194e-5
RAAN
83.3568°
Arg perigee
48.1727°
Mean anomaly
311.9677°
Rev number
70,845

§ Raw data

SARAL1 39086U 13009A   26257.91068530  .00000041  00000+0  31194-4 0  99992 39086  98.5566  83.3568 0002588  48.1727 311.9677 14.32907285708451

JSON: /api/v1/satellites/39086 · /tle

For live sub-satellite position, see the globe view (requires WebGL).

§ Visibility from observer

Set your observer location to see the next 7 days of passes ≥ 10°. The values pass through the URL so the page stays shareable.

No JS? Fill the form by hand. The geolocation button needs JavaScript.

§ Radio — SatNOGS DB

ModeDescriptionDownlinkUplink
BPSK PMT-A3 ARGOS-3 465.988 MHz
QPSK Mode L 1 - ARGOS 1.698 GHz
QPSK Mode L 2 1.703 GHz
FM Mode S 1 2.203 GHz
FM Mode S 2 2.225 GHz
FM Mode S 3 2.280 GHz
FM Mode S dumps 2.245 GHz
FM Mode X 8.125 GHz
FM Mode X dumps 8.213 GHz

9 transmitters · refreshed weekly from db.satnogs.org